ANA181 PHNL-RJAA

Flight info

Callsign ANA181
Flight time N/A
Altitude 34000
Route KEOLA3 PUPPI DCT CRESP DCT 23N170W/N0488F360 25N180E 28N170E DCT EMNAK DCT 30N160E/N0478F380 33N150E MORAY OTR15 POVAL Y813 LUBLA
Aircraft A388/J-SADE2E3FGHIJ3J4J5M1RWXY/LB1D1

Departure

Time N/A
Airport Daniel K. Inouye International Airport (PHNL)

Arrival

Time 2026-05-04 01:53
Airport Narita International Airport (RJAA)
Time Latitude Longitude Altitude Speed Heading
2026-05-03 20:15 23.83260 -173.74574 36348 ft 468 kts 283°
2026-05-03 20:15 23.84710 -173.81506 36355 ft 467 kts 283°
2026-05-03 20:16 23.86151 -173.88430 36354 ft 466 kts 283°
2026-05-03 20:16 23.87583 -173.95335 36337 ft 466 kts 283°
2026-05-03 20:17 23.89007 -174.02208 36333 ft 466 kts 283°
2026-05-03 20:17 23.90437 -174.09124 36336 ft 465 kts 283°
2026-05-03 20:18 23.91853 -174.15989 36339 ft 465 kts 282°
2026-05-03 20:18 23.93278 -174.22905 36339 ft 466 kts 282°
2026-05-03 20:19 23.94697 -174.29818 36346 ft 466 kts 282°
2026-05-03 20:19 23.96106 -174.36701 36347 ft 466 kts 282°
2026-05-03 20:20 23.97520 -174.43625 36356 ft 467 kts 282°
2026-05-03 20:20 23.98936 -174.50569 36354 ft 467 kts 282°
2026-05-03 20:21 24.00348 -174.57517 36347 ft 467 kts 282°
2026-05-03 20:21 24.01748 -174.64416 36361 ft 466 kts 282°
2026-05-03 20:22 24.03150 -174.71354 36357 ft 466 kts 282°
2026-05-03 20:22 24.04550 -174.78291 36355 ft 466 kts 282°
2026-05-03 20:23 24.05937 -174.85181 36350 ft 465 kts 282°
2026-05-03 20:23 24.07322 -174.92077 36356 ft 465 kts 282°
2026-05-03 20:24 24.08706 -174.98997 36350 ft 464 kts 282°
2026-05-03 20:24 24.10093 -175.05914 36351 ft 465 kts 282°
2026-05-03 20:25 24.11473 -175.12835 36356 ft 465 kts 282°
2026-05-03 20:25 24.12841 -175.19729 36355 ft 465 kts 282°
2026-05-03 20:26 24.14219 -175.26674 36359 ft 466 kts 282°
2026-05-03 20:26 24.15585 -175.33578 36353 ft 466 kts 282°
2026-05-03 20:27 24.16958 -175.40542 36357 ft 466 kts 282°
2026-05-03 20:27 24.18320 -175.47457 36362 ft 467 kts 282°
2026-05-03 20:28 24.19687 -175.54414 36360 ft 467 kts 282°
2026-05-03 20:28 24.21052 -175.61391 36356 ft 468 kts 282°
2026-05-03 20:29 24.22414 -175.68363 36360 ft 468 kts 282°
2026-05-03 20:29 24.23770 -175.75304 36361 ft 468 kts 282°
2026-05-03 20:30 24.25130 -175.82301 36364 ft 468 kts 282°
2026-05-03 20:30 24.26477 -175.89262 36364 ft 468 kts 282°
2026-05-03 20:31 24.27831 -175.96262 36364 ft 468 kts 282°
2026-05-03 20:31 24.29181 -176.03258 36361 ft 468 kts 282°
2026-05-03 20:32 24.30516 -176.10203 36365 ft 467 kts 282°
2026-05-03 20:32 24.31850 -176.17155 36363 ft 467 kts 282°
2026-05-03 20:33 24.33188 -176.24144 36371 ft 467 kts 282°
2026-05-03 20:33 24.34525 -176.31137 36372 ft 467 kts 282°
2026-05-03 20:34 24.35847 -176.38091 36376 ft 468 kts 282°
2026-05-03 20:34 24.37177 -176.45092 36381 ft 468 kts 282°
2026-05-03 20:35 24.38497 -176.52050 36381 ft 468 kts 282°
2026-05-03 20:35 24.39820 -176.59058 36391 ft 468 kts 281°
2026-05-03 20:36 24.41141 -176.66067 36382 ft 468 kts 282°
2026-05-03 20:36 24.42447 -176.73015 36385 ft 467 kts 282°
2026-05-03 20:37 24.43758 -176.80017 36383 ft 467 kts 282°
2026-05-03 20:37 24.45058 -176.86967 36379 ft 467 kts 281°
2026-05-03 20:38 24.46364 -176.93967 36376 ft 466 kts 281°
2026-05-03 20:38 24.47655 -177.00914 36374 ft 466 kts 281°
2026-05-03 20:39 24.48951 -177.07902 36374 ft 466 kts 281°
2026-05-03 20:39 24.50234 -177.14841 36375 ft 466 kts 281°
2026-05-03 20:40 24.51525 -177.21838 36378 ft 467 kts 281°
2026-05-03 20:40 24.52809 -177.28805 36379 ft 467 kts 281°
2026-05-03 20:41 24.54090 -177.35805 36375 ft 467 kts 281°
2026-05-03 20:41 24.55371 -177.42812 36385 ft 467 kts 281°
2026-05-03 20:42 24.56641 -177.49773 36385 ft 467 kts 281°
2026-05-03 20:42 24.57918 -177.56791 36382 ft 467 kts 281°
2026-05-03 20:43 24.59190 -177.63811 36386 ft 468 kts 281°
2026-05-03 20:43 24.60455 -177.70785 36391 ft 468 kts 281°
2026-05-03 20:44 24.61722 -177.77802 36389 ft 468 kts 281°
2026-05-03 20:44 24.62986 -177.84822 36386 ft 468 kts 281°
2026-05-03 20:45 24.64246 -177.91854 36392 ft 468 kts 281°
2026-05-03 20:45 24.65503 -177.98881 36383 ft 467 kts 281°
2026-05-03 20:46 24.66748 -178.05866 36379 ft 468 kts 281°
2026-05-03 20:46 24.67999 -178.12895 36381 ft 468 kts 281°
2026-05-03 20:47 24.69247 -178.19929 36387 ft 468 kts 281°
2026-05-03 20:47 24.70486 -178.26936 36383 ft 468 kts 281°
2026-05-03 20:48 24.71731 -178.33981 36387 ft 469 kts 281°
2026-05-03 20:48 24.72970 -178.41029 36387 ft 469 kts 281°
2026-05-03 20:49 24.74208 -178.48085 36390 ft 468 kts 281°
2026-05-03 20:49 24.75435 -178.55090 36391 ft 469 kts 281°
2026-05-03 20:50 24.76665 -178.62146 36389 ft 469 kts 281°
2026-05-03 20:50 24.77890 -178.69201 36390 ft 469 kts 281°
2026-05-03 20:51 24.79110 -178.76229 36385 ft 469 kts 281°
2026-05-03 20:51 24.80324 -178.83240 36388 ft 468 kts 281°
2026-05-03 20:52 24.81542 -178.90295 36387 ft 468 kts 281°
2026-05-03 20:52 24.82752 -178.97337 36380 ft 468 kts 281°
2026-05-03 20:53 24.83958 -179.04371 36376 ft 467 kts 280°
2026-05-03 20:53 24.85163 -179.11419 36375 ft 468 kts 280°
2026-05-03 20:54 24.86358 -179.18432 36379 ft 469 kts 280°
2026-05-03 20:54 24.88161 -179.29052 36393 ft 470 kts 280°
2026-05-03 20:55 24.89360 -179.36134 36398 ft 470 kts 280°
2026-05-03 20:55 24.90548 -179.43180 36396 ft 470 kts 280°
2026-05-03 20:56 24.91740 -179.50273 36393 ft 470 kts 280°
2026-05-03 20:56 24.92924 -179.57328 36396 ft 470 kts 280°
2026-05-03 20:57 24.94115 -179.64424 36386 ft 470 kts 280°
2026-05-03 20:57 24.95299 -179.71513 36388 ft 469 kts 280°
2026-05-03 20:58 24.96468 -179.78543 36386 ft 469 kts 280°
2026-05-03 20:58 24.97641 -179.85611 36381 ft 469 kts 280°
2026-05-03 20:59 24.98618 -179.91501 36381 ft 469 kts 280°
2026-05-03 20:59 24.99795 -179.98565 36378 ft 468 kts 282°
2026-05-03 21:00 25.01423 179.95733 36353 ft 469 kts 290°
2026-05-03 21:00 25.04130 179.87870 36225 ft 473 kts 290°
2026-05-03 21:01 25.06462 179.81060 36114 ft 475 kts 290°
2026-05-03 21:01 25.08796 179.74227 36074 ft 474 kts 290°
2026-05-03 21:02 25.11102 179.67464 36056 ft 473 kts 290°
2026-05-03 21:02 25.13418 179.60663 36035 ft 472 kts 290°
2026-05-03 21:03 25.15721 179.53881 36034 ft 471 kts 290°
2026-05-03 21:03 25.18004 179.47144 36015 ft 472 kts 290°
2026-05-03 21:04 25.20310 179.40330 36008 ft 473 kts 290°
2026-05-03 21:04 25.22615 179.33501 36022 ft 475 kts 290°
2026-05-03 21:05 25.24921 179.26649 36037 ft 476 kts 290°
2026-05-03 21:05 25.27223 179.19806 36046 ft 478 kts 290°
2026-05-03 21:06 25.29546 179.12888 36058 ft 480 kts 290°
2026-05-03 21:06 25.31848 179.06019 36063 ft 480 kts 290°
2026-05-03 21:07 25.34164 178.99097 36055 ft 480 kts 290°
2026-05-03 21:07 25.36473 178.92180 36058 ft 479 kts 290°
2026-05-03 21:08 25.38779 178.85261 36050 ft 478 kts 290°
2026-05-03 21:08 25.41078 178.78355 36044 ft 477 kts 290°
2026-05-03 21:09 25.43347 178.71516 36032 ft 476 kts 290°
2026-05-03 21:09 25.45637 178.64610 36027 ft 476 kts 290°
2026-05-03 21:10 25.47903 178.57764 36025 ft 475 kts 290°
2026-05-03 21:10 25.50177 178.50880 36026 ft 475 kts 290°
2026-05-03 21:11 25.52448 178.43993 36029 ft 476 kts 290°
2026-05-03 21:11 25.54716 178.37105 36034 ft 476 kts 290°
2026-05-03 21:12 25.56970 178.30245 36032 ft 476 kts 290°
2026-05-03 21:12 25.59232 178.23350 36035 ft 477 kts 290°
2026-05-03 21:13 25.61494 178.16436 36047 ft 477 kts 290°
2026-05-03 21:13 25.63744 178.09550 36046 ft 477 kts 290°
2026-05-03 21:14 25.66005 178.02623 36049 ft 477 kts 290°
2026-05-03 21:14 25.68261 177.95696 36052 ft 477 kts 290°
2026-05-03 21:15 25.70499 177.88808 36049 ft 477 kts 290°
2026-05-03 21:15 25.72749 177.81872 36055 ft 477 kts 290°
2026-05-03 21:16 25.74994 177.74938 36044 ft 477 kts 290°
2026-05-03 21:16 25.77237 177.67996 36051 ft 477 kts 290°
2026-05-03 21:17 25.79095 177.62239 36045 ft 477 kts 290°
2026-05-03 21:17 25.81695 177.54169 36048 ft 477 kts 290°
2026-05-03 21:18 25.83914 177.47264 36051 ft 477 kts 290°
2026-05-03 21:18 25.86143 177.40317 36042 ft 476 kts 290°
2026-05-03 21:19 25.88355 177.33417 36053 ft 476 kts 290°
2026-05-03 21:19 25.90576 177.26466 36053 ft 476 kts 290°
2026-05-03 21:20 25.92779 177.19562 36032 ft 476 kts 290°
2026-05-03 21:20 25.94992 177.12612 36034 ft 476 kts 290°
2026-05-03 21:21 25.97207 177.05645 36046 ft 477 kts 290°
2026-05-03 21:21 25.99417 176.98681 36044 ft 478 kts 289°
2026-05-03 21:22 26.01614 176.91743 36054 ft 478 kts 290°
2026-05-03 21:22 26.03820 176.84761 36058 ft 478 kts 290°
2026-05-03 21:23 26.06025 176.77774 36055 ft 478 kts 290°
2026-05-03 21:23 26.08223 176.70786 36045 ft 477 kts 290°
2026-05-03 21:24 26.10405 176.63840 36037 ft 478 kts 290°
2026-05-03 21:24 26.12600 176.56848 36036 ft 478 kts 290°
2026-05-03 21:25 26.14800 176.49831 36035 ft 478 kts 290°
2026-05-03 21:25 26.16977 176.42868 36045 ft 479 kts 290°
2026-05-03 21:26 26.19159 176.35860 36052 ft 478 kts 290°
2026-05-03 21:26 26.21329 176.28886 36049 ft 479 kts 290°
2026-05-03 21:27 26.23509 176.21868 36051 ft 479 kts 290°
2026-05-03 21:27 26.25693 176.14829 36058 ft 479 kts 290°
2026-05-03 21:28 26.27852 176.07849 36058 ft 479 kts 289°
2026-05-03 21:28 26.30024 176.00815 36064 ft 479 kts 289°
2026-05-03 21:29 26.32198 175.93771 36063 ft 479 kts 289°
2026-05-03 21:29 26.34356 175.86760 36057 ft 479 kts 289°
2026-05-03 21:30 26.36516 175.79728 36060 ft 479 kts 289°
2026-05-03 21:30 26.38663 175.72722 36056 ft 479 kts 289°
2026-05-03 21:31 26.40817 175.65681 36049 ft 479 kts 289°
2026-05-03 21:31 26.42957 175.58679 36050 ft 479 kts 289°
2026-05-03 21:32 26.45107 175.51620 36057 ft 479 kts 289°
2026-05-03 21:32 26.47238 175.44604 36058 ft 479 kts 289°
2026-05-03 21:33 26.49377 175.37551 36060 ft 479 kts 289°
2026-05-03 21:33 26.51514 175.30489 36050 ft 479 kts 289°
2026-05-03 21:34 26.53640 175.23461 36060 ft 479 kts 289°
2026-05-03 21:34 26.55762 175.16429 36058 ft 479 kts 289°
2026-05-03 21:35 26.57885 175.09371 36062 ft 479 kts 289°
2026-05-03 21:35 26.60010 175.02301 36050 ft 479 kts 289°
2026-05-03 21:36 26.62116 174.95281 36058 ft 479 kts 289°
2026-05-03 21:36 26.64232 174.88207 36055 ft 479 kts 289°
2026-05-03 21:37 26.66333 174.81170 36050 ft 479 kts 289°
2026-05-03 21:37 26.68443 174.74092 36053 ft 478 kts 289°
2026-05-03 21:38 26.70544 174.67022 36046 ft 478 kts 289°
2026-05-03 21:38 26.72644 174.59942 36057 ft 479 kts 289°
2026-05-03 21:39 26.74732 174.52901 36047 ft 478 kts 289°
2026-05-03 21:39 26.76823 174.45826 36053 ft 479 kts 289°
2026-05-03 21:40 26.78912 174.38745 36056 ft 479 kts 289°
2026-05-03 21:40 26.80993 174.31682 36059 ft 479 kts 289°
2026-05-03 21:41 26.83078 174.24581 36052 ft 479 kts 289°
2026-05-03 21:41 26.85143 174.17536 36060 ft 479 kts 289°
2026-05-03 21:42 26.87225 174.10432 36058 ft 479 kts 289°
2026-05-03 21:42 26.89298 174.03328 36023 ft 479 kts 289°
2026-05-03 21:43 26.91355 173.96268 36021 ft 479 kts 289°
2026-05-03 21:43 26.93416 173.89176 36020 ft 478 kts 289°
2026-05-03 21:44 26.95479 173.82066 36017 ft 478 kts 289°
2026-05-03 21:44 26.97529 173.74973 36018 ft 478 kts 289°
2026-05-03 21:45 26.99567 173.67915 36017 ft 477 kts 289°
2026-05-03 21:45 27.01614 173.60827 36016 ft 478 kts 289°
2026-05-03 21:46 27.03315 173.54921 36015 ft 478 kts 289°
2026-05-03 21:46 27.05690 173.46649 36018 ft 478 kts 289°
2026-05-03 21:47 27.07383 173.40741 36022 ft 478 kts 289°
2026-05-03 21:47 27.09416 173.33632 36023 ft 477 kts 289°
2026-05-03 21:48 27.11434 173.26568 36026 ft 477 kts 289°
2026-05-03 21:48 27.13458 173.19463 36024 ft 477 kts 288°
2026-05-03 21:49 27.15478 173.12347 36023 ft 477 kts 288°
2026-05-03 21:49 27.17482 173.05282 36028 ft 477 kts 288°
2026-05-03 21:50 27.19496 172.98163 36030 ft 477 kts 288°
2026-05-03 21:50 27.21507 172.91048 36035 ft 477 kts 288°
2026-05-03 21:51 27.23513 172.83937 36020 ft 477 kts 288°
2026-05-03 21:51 27.25499 172.76868 36018 ft 476 kts 288°
2026-05-03 21:52 27.27494 172.69754 36015 ft 476 kts 288°
2026-05-03 21:52 27.29483 172.62651 36015 ft 476 kts 288°
2026-05-03 21:53 27.31456 172.55585 36017 ft 476 kts 288°
2026-05-03 21:53 27.33436 172.48485 36016 ft 476 kts 288°
2026-05-03 21:54 27.35420 172.41354 36024 ft 476 kts 288°
2026-05-03 21:54 27.37386 172.34267 36024 ft 476 kts 288°
2026-05-03 21:55 27.39358 172.27148 36019 ft 475 kts 288°
2026-05-03 21:55 27.41321 172.20038 36020 ft 475 kts 288°
2026-05-03 21:56 27.43269 172.12978 36017 ft 475 kts 288°
2026-05-03 21:56 27.45236 172.05830 36017 ft 475 kts 288°
2026-05-03 21:57 27.47189 171.98714 36017 ft 475 kts 288°
2026-05-03 21:57 27.49126 171.91645 36022 ft 475 kts 288°
2026-05-03 21:58 27.51072 171.84528 36017 ft 474 kts 288°
2026-05-03 21:58 27.53003 171.77456 36014 ft 474 kts 288°
2026-05-03 21:59 27.54938 171.70335 36018 ft 474 kts 288°
2026-05-03 21:59 27.56870 171.63217 36017 ft 474 kts 288°
2026-05-03 22:00 27.58790 171.56131 36018 ft 475 kts 288°
2026-05-03 22:00 27.60717 171.49007 36016 ft 475 kts 288°
2026-05-03 22:01 27.62637 171.41881 36010 ft 474 kts 288°
2026-05-03 22:01 27.64545 171.34780 36008 ft 475 kts 288°
2026-05-03 22:02 27.66465 171.27631 36018 ft 475 kts 288°
2026-05-03 22:02 27.68370 171.20524 36023 ft 475 kts 288°
2026-05-03 22:03 27.70288 171.13353 36023 ft 476 kts 288°
2026-05-03 22:03 27.72187 171.06229 36024 ft 476 kts 288°
2026-05-03 22:04 27.74094 170.99059 36025 ft 476 kts 288°
2026-05-03 22:04 27.75994 170.91892 36022 ft 476 kts 288°
2026-05-03 22:05 27.77883 170.84768 36020 ft 476 kts 288°
2026-05-03 22:05 27.79781 170.77592 36020 ft 475 kts 288°
2026-05-03 22:06 27.81658 170.70471 36023 ft 475 kts 288°
2026-05-03 22:06 27.83545 170.63295 36021 ft 475 kts 288°
2026-05-03 22:07 27.85424 170.56134 36017 ft 474 kts 288°
2026-05-03 22:07 27.87283 170.49020 36019 ft 474 kts 288°
2026-05-03 22:08 27.89153 170.41875 36014 ft 473 kts 288°
2026-05-03 22:08 27.91022 170.34726 36012 ft 473 kts 288°
2026-05-03 22:09 27.92872 170.27620 36017 ft 473 kts 288°
2026-05-03 22:10 27.95652 170.16915 36017 ft 472 kts 288°
2026-05-03 22:10 27.97491 170.09818 36013 ft 472 kts 288°
2026-05-03 22:11 27.99339 170.02677 36011 ft 472 kts 288°
2026-05-03 22:11 28.00963 169.95493 36010 ft 473 kts 285°
2026-05-03 22:12 28.02549 169.88252 36015 ft 473 kts 285°
2026-05-03 22:12 28.04159 169.81017 36021 ft 474 kts 285°
2026-05-03 22:13 28.05749 169.73779 36023 ft 474 kts 285°
2026-05-03 22:13 28.07323 169.66579 36022 ft 474 kts 285°
2026-05-03 22:14 28.08899 169.59328 36023 ft 473 kts 285°
2026-05-03 22:14 28.10466 169.52078 36027 ft 473 kts 285°
2026-05-03 22:15 28.12021 169.44873 36023 ft 473 kts 285°
2026-05-03 22:15 28.13582 169.37631 36022 ft 472 kts 285°
2026-05-03 22:16 28.15135 169.30400 36022 ft 472 kts 285°
2026-05-03 22:16 28.16676 169.23208 36026 ft 471 kts 285°
2026-05-03 22:17 28.18222 169.15978 36021 ft 471 kts 285°
2026-05-03 22:17 28.19759 169.08771 36016 ft 470 kts 285°
2026-05-03 22:18 28.21293 169.01550 36017 ft 470 kts 285°
2026-05-03 22:18 28.22813 168.94375 36019 ft 470 kts 285°
2026-05-03 22:19 28.24339 168.87158 36016 ft 469 kts 285°
2026-05-03 22:19 28.25848 168.79994 36013 ft 469 kts 285°
2026-05-03 22:20 28.27366 168.72777 36013 ft 469 kts 285°
2026-05-03 22:20 28.28868 168.65607 36013 ft 469 kts 285°
2026-05-03 22:21 28.30376 168.58386 36016 ft 469 kts 285°
2026-05-03 22:21 28.31883 168.51161 36018 ft 470 kts 284°
2026-05-03 22:22 28.33375 168.43983 36010 ft 470 kts 285°
2026-05-03 22:22 28.34881 168.36726 36017 ft 471 kts 285°
2026-05-03 22:23 28.36371 168.29522 36019 ft 471 kts 284°
2026-05-03 22:23 28.37866 168.22266 36020 ft 471 kts 284°
2026-05-03 22:24 28.39357 168.15015 36024 ft 471 kts 284°
2026-05-03 22:24 28.40844 168.07754 36024 ft 471 kts 284°
2026-05-03 22:25 28.42319 168.00533 36024 ft 471 kts 284°
2026-05-03 22:25 28.43802 167.93262 36025 ft 471 kts 284°
2026-05-03 22:26 28.45267 167.86048 36015 ft 471 kts 284°
2026-05-03 22:26 28.46734 167.78798 36014 ft 470 kts 284°
2026-05-03 22:27 28.48201 167.71549 36010 ft 470 kts 284°
2026-05-03 22:27 28.49650 167.64349 36007 ft 469 kts 284°
2026-05-03 22:28 28.51104 167.57111 36008 ft 469 kts 284°
2026-05-03 22:28 28.52556 167.49857 36007 ft 468 kts 284°
2026-05-03 22:29 28.53991 167.42664 36009 ft 468 kts 284°
2026-05-03 22:29 28.55433 167.35431 36008 ft 468 kts 284°
2026-05-03 22:30 28.56865 167.28234 36013 ft 468 kts 284°
2026-05-03 22:30 28.58292 167.21015 36008 ft 467 kts 284°
2026-05-03 22:31 28.59712 167.13825 36007 ft 467 kts 284°
2026-05-03 22:31 28.61128 167.06615 36004 ft 467 kts 284°
2026-05-03 22:32 28.62545 166.99392 36006 ft 467 kts 284°
2026-05-03 22:32 28.63947 166.92224 36001 ft 467 kts 284°
2026-05-03 22:33 28.65354 166.85008 36011 ft 466 kts 284°
2026-05-03 22:33 28.66759 166.77788 36007 ft 466 kts 284°
2026-05-03 22:34 28.67924 166.71784 36006 ft 466 kts 284°
2026-05-03 22:34 28.69312 166.64601 36009 ft 466 kts 284°
2026-05-03 22:35 28.70704 166.57392 36004 ft 466 kts 284°
2026-05-03 22:35 28.72089 166.50177 36008 ft 466 kts 284°
2026-05-03 22:36 28.73473 166.42955 36009 ft 466 kts 284°
2026-05-03 22:36 28.74843 166.35779 36008 ft 466 kts 284°
2026-05-03 22:37 28.76222 166.28536 36010 ft 466 kts 284°
2026-05-03 22:37 28.77587 166.21350 36011 ft 466 kts 284°
2026-05-03 22:38 28.78957 166.14118 36010 ft 466 kts 284°
2026-05-03 22:38 28.80324 166.06877 36012 ft 466 kts 284°
2026-05-03 22:39 28.81677 165.99682 36013 ft 466 kts 283°
2026-05-03 22:39 28.83037 165.92430 36002 ft 467 kts 283°
2026-05-03 22:40 28.84385 165.85223 36005 ft 466 kts 283°
2026-05-03 22:40 28.85741 165.77949 36009 ft 467 kts 283°
2026-05-03 22:41 28.87079 165.70745 36004 ft 467 kts 283°
2026-05-03 22:41 28.88431 165.63477 36008 ft 467 kts 283°
2026-05-03 22:42 28.89751 165.56267 36005 ft 467 kts 283°
2026-05-03 22:42 28.91093 165.48996 36011 ft 467 kts 283°
2026-05-03 22:43 28.92430 165.41710 36015 ft 467 kts 284°
2026-05-03 22:43 28.93744 165.34477 36013 ft 468 kts 283°
2026-05-03 22:44 28.95077 165.27192 36017 ft 468 kts 283°
2026-05-03 22:44 28.96405 165.19899 36012 ft 469 kts 283°
2026-05-03 22:45 28.97724 165.12646 36016 ft 469 kts 283°
2026-05-03 22:45 28.99046 165.05341 36012 ft 469 kts 283°
2026-05-03 22:46 29.00377 164.98023 36016 ft 469 kts 284°
2026-05-03 22:46 29.01955 164.90833 36012 ft 469 kts 286°
2026-05-03 22:47 29.03590 164.83609 35992 ft 469 kts 285°
2026-05-03 22:47 29.05183 164.76408 35985 ft 470 kts 285°
2026-05-03 22:48 29.06776 164.69135 35982 ft 469 kts 285°
2026-05-03 22:48 29.08349 164.61918 35981 ft 469 kts 285°
2026-05-03 22:49 29.09916 164.54704 35979 ft 469 kts 285°
2026-05-03 22:49 29.11488 164.47450 35980 ft 469 kts 285°
2026-05-03 22:50 29.13054 164.40195 35976 ft 470 kts 285°
2026-05-03 22:50 29.14608 164.32978 35978 ft 470 kts 285°
2026-05-03 22:51 29.16180 164.25693 35978 ft 470 kts 285°
2026-05-03 22:51 29.17730 164.18454 35981 ft 471 kts 285°
2026-05-03 22:52 29.19288 164.11149 35974 ft 471 kts 285°
2026-05-03 22:52 29.20835 164.03876 35978 ft 471 kts 285°
2026-05-03 22:53 29.22387 163.96572 35967 ft 472 kts 285°
2026-05-03 22:53 29.23934 163.89272 35974 ft 472 kts 285°
2026-05-03 22:54 29.25473 163.82002 35972 ft 472 kts 285°
2026-05-03 22:54 29.27016 163.74670 35983 ft 472 kts 285°
2026-05-03 22:55 29.28553 163.67349 35985 ft 473 kts 285°
2026-05-03 22:55 29.30077 163.60067 35989 ft 473 kts 285°
2026-05-03 22:56 29.31607 163.52727 35983 ft 472 kts 285°
2026-05-03 22:56 29.33136 163.45385 35983 ft 473 kts 285°
2026-05-03 22:57 29.34647 163.38104 35981 ft 473 kts 285°
2026-05-03 22:57 29.36163 163.30769 35981 ft 472 kts 285°
2026-05-03 22:58 29.37684 163.23419 35975 ft 473 kts 285°
2026-05-03 22:58 29.39198 163.16071 35971 ft 473 kts 285°
2026-05-03 22:59 29.40692 163.08777 35971 ft 472 kts 285°
2026-05-03 22:59 29.42195 163.01429 35969 ft 472 kts 285°
2026-05-03 23:00 29.43693 162.94093 35967 ft 472 kts 285°
2026-05-03 23:00 29.45186 162.86737 35964 ft 473 kts 285°
2026-05-03 23:01 29.46670 162.79417 35966 ft 474 kts 285°
2026-05-03 23:01 29.48160 162.72044 35969 ft 474 kts 284°
2026-05-03 23:02 29.49648 162.64667 35971 ft 474 kts 284°
2026-05-03 23:02 29.51132 162.57277 35978 ft 474 kts 284°
2026-05-03 23:03 29.52601 162.49930 35974 ft 474 kts 285°
2026-05-03 23:03 29.54078 162.42532 35963 ft 474 kts 285°
2026-05-03 23:04 29.55547 162.35159 35965 ft 475 kts 284°
2026-05-03 23:04 29.57022 162.27744 35963 ft 474 kts 285°
2026-05-03 23:05 29.58477 162.20380 35962 ft 474 kts 284°
2026-05-03 23:05 29.59935 162.12970 35961 ft 475 kts 284°
2026-05-03 23:06 29.61383 162.05603 35961 ft 474 kts 284°
2026-05-03 23:06 29.62834 161.98203 35959 ft 474 kts 284°
2026-05-03 23:07 29.64284 161.90787 35960 ft 475 kts 284°
2026-05-03 23:07 29.65729 161.83375 35963 ft 475 kts 284°
2026-05-03 23:08 29.67164 161.75989 35958 ft 476 kts 284°
2026-05-03 23:08 29.68599 161.68557 35957 ft 475 kts 284°
2026-05-03 23:09 29.70033 161.61128 35956 ft 475 kts 284°
2026-05-03 23:09 29.71454 161.53740 35955 ft 475 kts 284°
2026-05-03 23:10 29.72878 161.46305 35954 ft 475 kts 284°
2026-05-03 23:10 29.74301 161.38862 35949 ft 475 kts 284°
2026-05-03 23:11 29.75709 161.31468 35951 ft 475 kts 284°
2026-05-03 23:11 29.77128 161.24008 35951 ft 475 kts 284°
2026-05-03 23:12 29.78530 161.16603 35952 ft 475 kts 284°
2026-05-03 23:12 29.79934 161.09161 35948 ft 476 kts 284°
2026-05-03 23:13 29.81328 161.01742 35942 ft 476 kts 284°
2026-05-03 23:13 29.82724 160.94291 35942 ft 476 kts 284°
2026-05-03 23:14 29.84122 160.86806 35945 ft 476 kts 284°
2026-05-03 23:14 29.85507 160.79370 35946 ft 477 kts 284°
2026-05-03 23:15 29.86896 160.71876 35936 ft 477 kts 284°
2026-05-03 23:15 29.88272 160.64436 35937 ft 477 kts 284°
2026-05-03 23:16 29.89654 160.56944 35937 ft 477 kts 284°
2026-05-03 23:16 29.91026 160.49482 35935 ft 477 kts 284°
2026-05-03 23:17 29.92401 160.41981 35926 ft 477 kts 284°
2026-05-03 23:17 29.93772 160.34483 35929 ft 477 kts 284°
2026-05-03 23:18 29.95127 160.27015 35926 ft 477 kts 283°
2026-05-03 23:18 29.96490 160.19490 35934 ft 478 kts 283°
2026-05-03 23:19 29.97844 160.12006 35928 ft 479 kts 283°
2026-05-03 23:19 29.99207 160.04469 35931 ft 480 kts 284°
2026-05-03 23:20 30.00982 159.97123 35928 ft 476 kts 293°
2026-05-03 23:20 30.03470 159.90011 35918 ft 476 kts 293°
2026-05-03 23:21 30.05923 159.82945 35917 ft 476 kts 293°
2026-05-03 23:21 30.08391 159.75836 35920 ft 476 kts 293°
2026-05-03 23:22 30.12074 159.65219 35921 ft 475 kts 293°
2026-05-03 23:22 30.14531 159.58117 35954 ft 478 kts 293°
2026-05-03 23:23 30.15764 159.54547 36365 ft 478 kts 293°
2026-05-03 23:23 30.16994 159.50980 36794 ft 477 kts 293°
2026-05-03 23:23 30.18217 159.47431 37251 ft 475 kts 293°
2026-05-03 23:23 30.19027 159.45078 37573 ft 473 kts 293°
2026-05-03 23:24 30.20244 159.41539 37856 ft 475 kts 293°
2026-05-03 23:24 30.21457 159.38002 37906 ft 466 kts 293°
2026-05-03 23:24 30.23822 159.31096 37906 ft 463 kts 293°
2026-05-03 23:25 30.26184 159.24190 37906 ft 464 kts 293°
2026-05-03 23:25 30.28559 159.17226 37906 ft 464 kts 293°
2026-05-03 23:26 30.30927 159.10268 37914 ft 464 kts 293°
2026-05-03 23:26 30.33277 159.03355 37916 ft 463 kts 292°
2026-05-03 23:27 30.35638 158.96390 37902 ft 463 kts 292°
2026-05-03 23:27 30.37986 158.89450 37896 ft 462 kts 292°
2026-05-03 23:28 30.40318 158.82544 37887 ft 462 kts 292°
2026-05-03 23:28 30.42658 158.75604 37891 ft 461 kts 292°
2026-05-03 23:29 30.44980 158.68712 37886 ft 461 kts 292°
2026-05-03 23:29 30.47312 158.61760 37888 ft 462 kts 292°
2026-05-03 23:30 30.49635 158.54817 37890 ft 462 kts 292°
2026-05-03 23:30 30.51958 158.47868 37891 ft 462 kts 292°
2026-05-03 23:31 30.54263 158.40956 37872 ft 457 kts 292°
2026-05-03 23:31 30.56572 158.34019 37879 ft 468 kts 292°
2026-05-03 23:32 30.58943 158.26888 37863 ft 484 kts 292°
2026-05-03 23:32 30.61394 158.19498 37810 ft 484 kts 292°
2026-05-03 23:33 30.62574 158.15926 37944 ft 465 kts 292°
2026-05-03 23:33 30.63722 158.12449 37869 ft 458 kts 292°
2026-05-03 23:33 30.66021 158.05488 37869 ft 463 kts 292°
2026-05-03 23:34 30.68303 157.98541 37858 ft 463 kts 292°
2026-05-03 23:34 30.70614 157.91527 37861 ft 462 kts 292°
2026-05-03 23:35 30.72894 157.84584 37858 ft 462 kts 292°
2026-05-03 23:35 30.75186 157.77580 37863 ft 462 kts 292°
2026-05-03 23:36 30.77458 157.70620 37864 ft 462 kts 292°
2026-05-03 23:36 30.79737 157.63628 37867 ft 462 kts 292°
2026-05-03 23:37 30.82015 157.56625 37865 ft 461 kts 292°
2026-05-03 23:37 30.84271 157.49675 37856 ft 461 kts 292°
2026-05-03 23:38 30.86535 157.42683 37854 ft 460 kts 292°
2026-05-03 23:38 30.88779 157.35744 37849 ft 460 kts 292°
2026-05-03 23:39 30.91033 157.28745 37845 ft 459 kts 292°
2026-05-03 23:39 30.93266 157.21807 37845 ft 460 kts 292°
2026-05-03 23:40 30.95513 157.14825 37848 ft 460 kts 291°
2026-05-03 23:40 30.97751 157.07836 37841 ft 460 kts 291°
2026-05-03 23:41 30.99979 157.00864 37839 ft 460 kts 291°
2026-05-03 23:41 31.02212 156.93859 37843 ft 460 kts 291°
2026-05-03 23:42 31.04430 156.86895 37841 ft 460 kts 291°
2026-05-03 23:42 31.06656 156.79896 37842 ft 460 kts 291°
2026-05-03 23:43 31.08878 156.72884 37833 ft 460 kts 291°
2026-05-03 23:43 31.11088 156.65897 37833 ft 460 kts 291°
2026-05-03 23:44 31.13307 156.58862 37834 ft 460 kts 291°
2026-05-03 23:44 31.15504 156.51884 37835 ft 460 kts 291°
2026-05-03 23:45 31.17707 156.44860 37824 ft 460 kts 291°
2026-05-03 23:45 31.19911 156.37837 37823 ft 460 kts 291°
2026-05-03 23:46 31.22099 156.30857 37823 ft 459 kts 291°
2026-05-03 23:46 31.24288 156.23842 37826 ft 459 kts 291°
2026-05-03 23:47 31.26478 156.16811 37825 ft 459 kts 291°
2026-05-03 23:47 31.28641 156.09838 37825 ft 459 kts 291°
2026-05-03 23:48 31.30822 156.02813 37813 ft 458 kts 291°
2026-05-03 23:48 31.32983 155.95834 37805 ft 458 kts 291°
2026-05-03 23:49 31.35156 155.88800 37807 ft 458 kts 291°
2026-05-03 23:49 31.37321 155.81772 37809 ft 459 kts 290°
2026-05-03 23:50 31.39119 155.75911 37810 ft 459 kts 291°
2026-05-03 23:50 31.41633 155.67718 37813 ft 459 kts 290°
2026-05-03 23:51 31.43794 155.60654 37812 ft 460 kts 291°
2026-05-03 23:51 31.45938 155.53637 37811 ft 460 kts 290°
2026-05-03 23:52 31.48093 155.46558 37812 ft 460 kts 290°
2026-05-03 23:52 31.50243 155.39490 37808 ft 460 kts 290°
2026-05-03 23:53 31.52372 155.32467 37802 ft 460 kts 290°
2026-05-03 23:53 31.54520 155.25370 37801 ft 460 kts 290°
2026-05-03 23:54 31.56651 155.18307 37792 ft 461 kts 290°
2026-05-03 23:54 31.58790 155.11206 37796 ft 461 kts 290°
2026-05-03 23:55 31.60923 155.04102 37789 ft 462 kts 290°
2026-05-03 23:55 31.63044 154.97033 37792 ft 462 kts 290°
2026-05-03 23:56 31.65180 154.89902 37794 ft 462 kts 290°
2026-05-03 23:56 31.67309 154.82760 37797 ft 463 kts 290°
2026-05-03 23:57 31.69421 154.75671 37784 ft 463 kts 290°
2026-05-03 23:57 31.71546 154.68523 37785 ft 463 kts 290°
2026-05-03 23:58 31.73666 154.61357 37785 ft 464 kts 290°
2026-05-03 23:58 31.75774 154.54226 37788 ft 464 kts 290°
2026-05-03 23:59 31.77892 154.47049 37790 ft 465 kts 290°
2026-05-03 23:59 31.80006 154.39854 37785 ft 465 kts 290°
2026-05-04 00:00 31.82106 154.32704 37785 ft 465 kts 290°
2026-05-04 00:00 31.84218 154.25501 37784 ft 465 kts 290°
2026-05-04 00:01 31.86311 154.18338 37781 ft 465 kts 290°
2026-05-04 00:01 31.88415 154.11122 37781 ft 465 kts 290°
2026-05-04 00:02 31.90495 154.03964 37780 ft 465 kts 290°
2026-05-04 00:02 31.92591 153.96737 37771 ft 465 kts 290°
2026-05-04 00:03 31.94664 153.89574 37770 ft 464 kts 290°
2026-05-04 00:03 31.96648 153.82702 37759 ft 465 kts 289°
2026-05-04 00:04 31.98725 153.75489 37752 ft 466 kts 289°
2026-05-04 00:04 32.00808 153.68238 37759 ft 467 kts 289°
2026-05-04 00:05 32.02877 153.61010 37759 ft 468 kts 289°
2026-05-04 00:05 32.04964 153.53720 37766 ft 468 kts 289°
2026-05-04 00:06 32.07041 153.46425 37773 ft 468 kts 289°
2026-05-04 00:06 32.09104 153.39181 37769 ft 468 kts 289°
2026-05-04 00:07 32.11174 153.31890 37768 ft 467 kts 289°
2026-05-04 00:07 32.13223 153.24661 37765 ft 467 kts 289°
2026-05-04 00:08 32.15279 153.17382 37752 ft 466 kts 289°
2026-05-04 00:08 32.17331 153.10105 37753 ft 466 kts 289°
2026-05-04 00:09 32.19363 153.02874 37750 ft 466 kts 288°
2026-05-04 00:09 32.21405 152.95590 37752 ft 466 kts 288°
2026-05-04 00:10 32.23436 152.88324 37746 ft 465 kts 288°
2026-05-04 00:10 32.25449 152.81108 37732 ft 465 kts 288°
2026-05-04 00:11 32.27480 152.73813 37735 ft 466 kts 288°
2026-05-04 00:11 32.29489 152.66569 37734 ft 466 kts 288°
2026-05-04 00:12 32.31509 152.59274 37741 ft 467 kts 288°
2026-05-04 00:12 32.33528 152.51959 37739 ft 467 kts 288°
2026-05-04 00:13 32.35528 152.44700 37740 ft 467 kts 288°
2026-05-04 00:13 32.37540 152.37383 37752 ft 467 kts 288°
2026-05-04 00:14 32.39547 152.30056 37754 ft 468 kts 288°
2026-05-04 00:14 32.41542 152.22762 37753 ft 467 kts 288°
2026-05-04 00:15 32.43546 152.15413 37743 ft 468 kts 288°
2026-05-04 00:15 32.45530 152.08112 37749 ft 468 kts 287°
2026-05-04 00:16 32.47519 152.00766 37743 ft 467 kts 287°
2026-05-04 00:16 32.49508 151.93425 37742 ft 467 kts 287°
2026-05-04 00:17 32.51478 151.86136 37746 ft 466 kts 287°
2026-05-04 00:17 32.53447 151.78818 37741 ft 466 kts 287°
2026-05-04 00:18 32.55414 151.71494 37724 ft 465 kts 287°
2026-05-04 00:18 32.57358 151.64228 37716 ft 465 kts 287°
2026-05-04 00:19 32.59313 151.56912 37729 ft 465 kts 287°
2026-05-04 00:19 32.61264 151.49591 37725 ft 465 kts 287°
2026-05-04 00:20 32.63200 151.42314 37734 ft 465 kts 287°
2026-05-04 00:20 32.65146 151.34972 37727 ft 465 kts 287°
2026-05-04 00:21 32.67077 151.27657 37718 ft 464 kts 287°
2026-05-04 00:21 32.68993 151.20383 37712 ft 464 kts 287°
2026-05-04 00:22 32.70919 151.13065 37711 ft 464 kts 287°
2026-05-04 00:22 32.72840 151.05739 37712 ft 464 kts 287°
2026-05-04 00:23 32.74753 150.98424 37727 ft 463 kts 287°
2026-05-04 00:23 32.76651 150.91157 37705 ft 463 kts 287°
2026-05-04 00:24 32.78560 150.83819 37708 ft 464 kts 287°
2026-05-04 00:24 32.80460 150.76491 37710 ft 464 kts 287°
2026-05-04 00:25 32.82041 150.70379 37713 ft 464 kts 287°
2026-05-04 00:25 32.83941 150.63019 37714 ft 464 kts 287°
2026-05-04 00:26 32.85822 150.55722 37712 ft 464 kts 287°
2026-05-04 00:26 32.87708 150.48371 37706 ft 463 kts 286°
2026-05-04 00:27 32.89591 150.41024 37705 ft 464 kts 287°
2026-05-04 00:27 32.91464 150.33710 37705 ft 464 kts 286°
2026-05-04 00:28 32.93343 150.26353 37708 ft 463 kts 286°
2026-05-04 00:28 32.95200 150.19061 37707 ft 463 kts 286°
2026-05-04 00:29 32.97065 150.11724 37700 ft 462 kts 286°
2026-05-04 00:29 32.98924 150.04385 37692 ft 462 kts 286°
2026-05-04 00:30 33.00842 149.97059 37691 ft 462 kts 290°
2026-05-04 00:30 33.03320 149.90023 37689 ft 462 kts 292°
2026-05-04 00:31 33.05844 149.82960 37688 ft 462 kts 291°
2026-05-04 00:31 33.08304 149.75864 37692 ft 462 kts 291°
2026-05-04 00:32 33.10720 149.68805 37683 ft 462 kts 291°
2026-05-04 00:32 33.13146 149.61690 37683 ft 462 kts 291°
2026-05-04 00:33 33.16770 149.51038 37688 ft 463 kts 291°
2026-05-04 00:34 33.19196 149.43895 37688 ft 463 kts 291°
2026-05-04 00:34 33.21597 149.36806 37693 ft 463 kts 290°
2026-05-04 00:35 33.24006 149.29677 37691 ft 463 kts 290°
2026-05-04 00:35 33.26417 149.22526 37684 ft 462 kts 290°
2026-05-04 00:36 33.28803 149.15435 37680 ft 462 kts 290°
2026-05-04 00:36 33.31191 149.08321 37675 ft 461 kts 290°
2026-05-04 00:37 33.33579 149.01199 37666 ft 460 kts 290°
2026-05-04 00:37 33.35944 148.94118 37665 ft 460 kts 290°
2026-05-04 00:38 33.38321 148.86990 37668 ft 460 kts 290°
2026-05-04 00:38 33.40678 148.79903 37668 ft 460 kts 290°
2026-05-04 00:39 33.43043 148.72771 37667 ft 460 kts 290°
2026-05-04 00:39 33.45412 148.65621 37659 ft 461 kts 290°
2026-05-04 00:40 33.47756 148.58529 37667 ft 461 kts 290°
2026-05-04 00:40 33.50112 148.51378 37663 ft 461 kts 290°
2026-05-04 00:41 33.52463 148.44226 37661 ft 461 kts 289°
2026-05-04 00:41 33.54817 148.37060 37658 ft 460 kts 289°
2026-05-04 00:42 33.57144 148.29957 37661 ft 460 kts 289°
2026-05-04 00:42 33.59484 148.22793 37660 ft 460 kts 289°
2026-05-04 00:43 33.61799 148.15685 37657 ft 461 kts 289°
2026-05-04 00:43 33.64140 148.08488 37655 ft 461 kts 289°
2026-05-04 00:44 33.66461 148.01331 37655 ft 461 kts 289°
2026-05-04 00:44 33.68790 147.94137 37657 ft 461 kts 289°
2026-05-04 00:45 33.71109 147.86956 37655 ft 461 kts 289°
2026-05-04 00:45 33.73422 147.79775 37653 ft 461 kts 289°
2026-05-04 00:46 33.75719 147.72626 37654 ft 460 kts 289°
2026-05-04 00:46 33.78022 147.65439 37652 ft 460 kts 289°
2026-05-04 00:47 33.80312 147.58289 37642 ft 460 kts 289°
2026-05-04 00:47 33.82612 147.51082 37646 ft 460 kts 289°
2026-05-04 00:48 33.84902 147.43884 37646 ft 460 kts 289°
2026-05-04 00:48 33.87173 147.36732 37647 ft 460 kts 288°
2026-05-04 00:49 33.89457 147.29532 37645 ft 459 kts 289°
2026-05-04 00:49 33.91732 147.22334 37645 ft 459 kts 288°
2026-05-04 00:50 33.93990 147.15174 37650 ft 459 kts 288°
2026-05-04 00:50 33.96258 147.07966 37648 ft 459 kts 288°
2026-05-04 00:51 33.98498 147.00825 37643 ft 458 kts 288°
2026-05-04 00:51 34.00753 146.93626 37640 ft 458 kts 288°
2026-05-04 00:52 34.02992 146.86459 37654 ft 455 kts 288°
2026-05-04 00:52 34.05211 146.79343 37649 ft 454 kts 288°
2026-05-04 00:53 34.07433 146.72198 37644 ft 454 kts 288°
2026-05-04 00:53 34.09647 146.65055 37639 ft 453 kts 288°
2026-05-04 00:54 34.11842 146.57967 37631 ft 452 kts 288°
2026-05-04 00:54 34.14038 146.50858 37624 ft 452 kts 287°
2026-05-04 00:55 34.16227 146.43754 37615 ft 451 kts 288°
2026-05-04 00:55 34.18396 146.36685 37618 ft 450 kts 287°
2026-05-04 00:56 34.20572 146.29581 37619 ft 450 kts 287°
2026-05-04 00:56 34.22747 146.22466 37620 ft 451 kts 287°
2026-05-04 00:57 34.24908 146.15382 37626 ft 452 kts 287°
2026-05-04 00:57 34.27083 146.08244 37625 ft 452 kts 287°
2026-05-04 00:58 34.29135 146.01050 37628 ft 451 kts 283°
2026-05-04 00:58 34.30443 145.93626 37630 ft 450 kts 276°
2026-05-04 00:59 34.31342 145.86181 37632 ft 450 kts 277°
2026-05-04 00:59 34.32281 145.78688 37635 ft 449 kts 276°
2026-05-04 01:00 34.33196 145.71259 37630 ft 449 kts 276°
2026-05-04 01:00 34.34108 145.63788 37633 ft 448 kts 276°
2026-05-04 01:01 34.35014 145.56326 37633 ft 448 kts 276°
2026-05-04 01:01 34.35916 145.48869 37634 ft 447 kts 276°
2026-05-04 01:02 34.36807 145.41454 37633 ft 446 kts 276°
2026-05-04 01:02 34.37693 145.34023 37627 ft 445 kts 276°
2026-05-04 01:03 34.38576 145.26596 37620 ft 444 kts 275°
2026-05-04 01:03 34.39447 145.19241 37623 ft 444 kts 275°
2026-05-04 01:04 34.40321 145.11813 37605 ft 444 kts 275°
2026-05-04 01:04 34.41182 145.04457 37600 ft 443 kts 275°
2026-05-04 01:05 34.42042 144.97059 37616 ft 442 kts 275°
2026-05-04 01:05 34.42891 144.89711 37601 ft 442 kts 275°
2026-05-04 01:06 34.43742 144.82341 37593 ft 441 kts 275°
2026-05-04 01:06 34.44589 144.74964 37593 ft 441 kts 275°
2026-05-04 01:07 34.45428 144.67593 37594 ft 441 kts 275°
2026-05-04 01:07 34.46256 144.60266 37586 ft 441 kts 275°
2026-05-04 01:08 34.47086 144.52888 37590 ft 441 kts 275°
2026-05-04 01:08 34.48247 144.45561 37589 ft 444 kts 281°
2026-05-04 01:09 34.49805 144.38341 37589 ft 445 kts 281°
2026-05-04 01:09 34.51348 144.31064 37597 ft 445 kts 281°
2026-05-04 01:10 34.52877 144.23825 37595 ft 445 kts 281°
2026-05-04 01:10 34.54415 144.16542 37597 ft 445 kts 281°
2026-05-04 01:11 34.55948 144.09247 37607 ft 446 kts 280°
2026-05-04 01:11 34.57474 144.01951 37597 ft 445 kts 280°
2026-05-04 01:12 34.58985 143.94718 37612 ft 444 kts 280°
2026-05-04 01:12 34.60507 143.87417 37596 ft 443 kts 280°
2026-05-04 01:13 34.61759 143.81385 37594 ft 443 kts 280°
2026-05-04 01:13 34.63260 143.74115 37579 ft 443 kts 280°
2026-05-04 01:14 34.64749 143.66904 37570 ft 442 kts 280°
2026-05-04 01:14 34.66243 143.59653 37573 ft 441 kts 279°
2026-05-04 01:15 34.67716 143.52466 37572 ft 440 kts 279°
2026-05-04 01:15 34.69195 143.45224 37558 ft 439 kts 279°
2026-05-04 01:16 34.70661 143.38024 37554 ft 438 kts 279°
2026-05-04 01:16 34.72111 143.30874 37557 ft 437 kts 279°
2026-05-04 01:17 34.73565 143.23693 37558 ft 437 kts 279°
2026-05-04 01:17 34.75008 143.16542 37556 ft 435 kts 279°
2026-05-04 01:18 34.76448 143.09380 37552 ft 435 kts 279°
2026-05-04 01:18 34.77882 143.02219 37558 ft 435 kts 279°
2026-05-04 01:19 34.79298 142.95137 37284 ft 428 kts 279°
2026-05-04 01:19 34.80000 142.91621 37036 ft 426 kts 279°
2026-05-04 01:19 34.80696 142.88105 36787 ft 426 kts 278°
2026-05-04 01:19 34.81376 142.84642 36533 ft 427 kts 278°
2026-05-04 01:20 34.82073 142.81112 36293 ft 429 kts 278°
2026-05-04 01:20 34.82770 142.77564 36043 ft 431 kts 278°
2026-05-04 01:20 34.83469 142.73990 35793 ft 435 kts 278°
2026-05-04 01:20 34.84166 142.70418 35545 ft 439 kts 278°
2026-05-04 01:21 34.84876 142.66776 35303 ft 443 kts 278°
2026-05-04 01:21 34.85592 142.63111 35043 ft 443 kts 278°
2026-05-04 01:21 34.86306 142.59453 34791 ft 444 kts 278°
2026-05-04 01:21 34.87009 142.55837 34549 ft 444 kts 278°
2026-05-04 01:22 34.87724 142.52159 34292 ft 445 kts 278°
2026-05-04 01:22 34.88437 142.48487 34047 ft 444 kts 278°
2026-05-04 01:22 34.89146 142.44829 33799 ft 442 kts 278°
2026-05-04 01:22 34.89849 142.41193 33549 ft 440 kts 278°
2026-05-04 01:23 34.90540 142.37613 33298 ft 437 kts 278°
2026-05-04 01:23 34.91236 142.34005 33048 ft 436 kts 278°
2026-05-04 01:23 34.91925 142.30417 32797 ft 435 kts 278°
2026-05-04 01:23 34.92616 142.26812 32546 ft 433 kts 278°
2026-05-04 01:24 34.93298 142.23251 32296 ft 431 kts 278°
2026-05-04 01:24 34.93972 142.19734 32042 ft 429 kts 278°
2026-05-04 01:24 34.94649 142.16184 31801 ft 428 kts 278°
2026-05-04 01:24 34.95322 142.12650 31547 ft 426 kts 278°
2026-05-04 01:25 34.95991 142.09138 31297 ft 424 kts 278°
2026-05-04 01:25 34.96657 142.05636 31049 ft 423 kts 278°
2026-05-04 01:25 34.97318 142.02143 30807 ft 422 kts 277°
2026-05-04 01:25 34.97977 141.98659 30549 ft 420 kts 277°
2026-05-04 01:26 34.98627 141.95245 30300 ft 416 kts 277°
2026-05-04 01:26 34.99281 141.91817 30053 ft 414 kts 277°
2026-05-04 01:26 34.99936 141.88389 29798 ft 412 kts 277°
2026-05-04 01:26 35.00581 141.84992 29545 ft 410 kts 277°
2026-05-04 01:27 35.01236 141.81597 29297 ft 410 kts 279°
2026-05-04 01:27 35.02259 141.78357 29031 ft 419 kts 290°
2026-05-04 01:27 35.03851 141.75337 28551 ft 429 kts 301°
2026-05-04 01:27 35.05974 141.72733 28043 ft 438 kts 313°
2026-05-04 01:28 35.08563 141.70679 27524 ft 448 kts 325°
2026-05-04 01:28 35.11374 141.69023 26993 ft 445 kts 326°
2026-05-04 01:28 35.14110 141.67399 26481 ft 440 kts 325°
2026-05-04 01:28 35.16852 141.65755 25949 ft 436 kts 325°
2026-05-04 01:29 35.19562 141.64124 25442 ft 432 kts 325°
2026-05-04 01:29 35.22254 141.62501 24930 ft 428 kts 325°
2026-05-04 01:29 35.24910 141.60898 24426 ft 424 kts 325°
2026-05-04 01:29 35.27547 141.59303 23924 ft 420 kts 325°
2026-05-04 01:30 35.30153 141.57727 23427 ft 416 kts 325°
2026-05-04 01:30 35.32747 141.56159 22931 ft 413 kts 325°
2026-05-04 01:30 35.35281 141.54628 22443 ft 409 kts 325°
2026-05-04 01:30 35.37829 141.53087 21953 ft 405 kts 325°
2026-05-04 01:31 35.40354 141.51560 21461 ft 401 kts 325°
2026-05-04 01:31 35.42842 141.50051 20977 ft 397 kts 324°
2026-05-04 01:31 35.45314 141.48552 20499 ft 394 kts 324°
2026-05-04 01:31 35.47761 141.47067 20010 ft 390 kts 324°
2026-05-04 01:32 35.50157 141.45612 19539 ft 387 kts 324°
2026-05-04 01:32 35.52486 141.44024 19064 ft 374 kts 315°
2026-05-04 01:32 35.54362 141.41932 18616 ft 356 kts 301°
2026-05-04 01:32 35.55727 141.39473 18178 ft 341 kts 289°
2026-05-04 01:33 35.56705 141.36905 17785 ft 334 kts 287°
2026-05-04 01:33 35.57694 141.34327 17354 ft 331 kts 288°
2026-05-04 01:33 35.58686 141.31783 16947 ft 328 kts 288°
2026-05-04 01:33 35.59669 141.29263 16538 ft 325 kts 287°
2026-05-04 01:34 35.60626 141.26800 16140 ft 321 kts 287°
2026-05-04 01:34 35.61584 141.24330 15742 ft 317 kts 287°
2026-05-04 01:34 35.62525 141.21895 15351 ft 313 kts 287°
2026-05-04 01:34 35.63453 141.19488 14957 ft 309 kts 287°
2026-05-04 01:35 35.64360 141.17131 14576 ft 308 kts 286°
2026-05-04 01:35 35.65395 141.14812 14186 ft 311 kts 294°
2026-05-04 01:35 35.66717 141.12677 13792 ft 318 kts 301°
2026-05-04 01:35 35.68308 141.10753 13390 ft 323 kts 309°
2026-05-04 01:36 35.70011 141.08953 12986 ft 321 kts 308°
2026-05-04 01:36 35.71693 141.07143 12585 ft 319 kts 308°
2026-05-04 01:36 35.73336 141.05357 12194 ft 317 kts 308°
2026-05-04 01:36 35.74976 141.03557 11795 ft 313 kts 306°
2026-05-04 01:37 35.76424 141.01606 11394 ft 306 kts 297°
2026-05-04 01:37 35.77644 140.99409 11147 ft 314 kts 291°
2026-05-04 01:37 35.78723 140.97032 10892 ft 320 kts 290°
2026-05-04 01:37 35.79830 140.94655 10682 ft 316 kts 290°
2026-05-04 01:38 35.80921 140.92351 10591 ft 305 kts 290°
2026-05-04 01:38 35.81963 140.90159 10469 ft 292 kts 290°
2026-05-04 01:38 35.82965 140.88046 10375 ft 279 kts 289°
2026-05-04 01:38 35.83926 140.86001 10085 ft 274 kts 288°
2026-05-04 01:39 35.84863 140.83975 9834 ft 270 kts 288°
2026-05-04 01:39 35.85790 140.81964 9700 ft 267 kts 288°
2026-05-04 01:39 35.86713 140.79966 9462 ft 269 kts 288°
2026-05-04 01:39 35.87625 140.78003 9208 ft 264 kts 288°
2026-05-04 01:40 35.88535 140.76055 8959 ft 259 kts 288°
2026-05-04 01:40 35.89426 140.74143 8702 ft 254 kts 287°
2026-05-04 01:40 35.90299 140.72266 8453 ft 249 kts 287°
2026-05-04 01:40 35.91156 140.70423 8199 ft 245 kts 286°
2026-05-04 01:41 35.91981 140.68633 7953 ft 241 kts 286°
2026-05-04 01:41 35.92801 140.66856 7745 ft 237 kts 286°
2026-05-04 01:41 35.93618 140.65085 7512 ft 237 kts 286°
2026-05-04 01:41 35.94437 140.63321 7283 ft 237 kts 285°
2026-05-04 01:42 35.95253 140.61561 7029 ft 235 kts 285°
2026-05-04 01:42 35.96066 140.59805 6785 ft 236 kts 285°
2026-05-04 01:42 35.96863 140.58084 6550 ft 232 kts 285°
2026-05-04 01:42 35.97659 140.56364 6327 ft 230 kts 283°
2026-05-04 01:43 35.98200 140.54582 6082 ft 215 kts 269°
2026-05-04 01:43 35.98310 140.52802 5879 ft 201 kts 257°
2026-05-04 01:43 35.98173 140.51086 5669 ft 201 kts 255°
2026-05-04 01:43 35.98059 140.49347 5437 ft 203 kts 256°
2026-05-04 01:44 35.97970 140.47624 5234 ft 200 kts 257°
2026-05-04 01:44 35.97883 140.45922 5030 ft 203 kts 256°
2026-05-04 01:44 35.97789 140.44187 4815 ft 203 kts 257°
2026-05-04 01:44 35.97699 140.42452 4594 ft 204 kts 257°
2026-05-04 01:45 35.97607 140.40708 4360 ft 204 kts 257°
2026-05-04 01:45 35.97509 140.38948 4169 ft 207 kts 257°
2026-05-04 01:45 35.97314 140.35360 3677 ft 207 kts 256°
2026-05-04 01:46 35.97222 140.33624 3457 ft 207 kts 256°
2026-05-04 01:46 35.97124 140.31851 3216 ft 207 kts 256°
2026-05-04 01:46 35.97025 140.30068 2969 ft 207 kts 256°
2026-05-04 01:46 35.96930 140.28317 2871 ft 200 kts 256°
2026-05-04 01:47 35.96680 140.26752 2754 ft 172 kts 234°
2026-05-04 01:47 35.95908 140.25843 2671 ft 143 kts 211°
2026-05-04 01:47 35.95035 140.25451 2490 ft 127 kts 197°
2026-05-04 01:47 35.94180 140.25360 2431 ft 123 kts 188°
2026-05-04 01:48 35.93310 140.25519 2401 ft 131 kts 177°
2026-05-04 01:48 35.92449 140.25951 2395 ft 137 kts 167°
2026-05-04 01:48 35.91620 140.26528 2414 ft 139 kts 162°
2026-05-04 01:48 35.90797 140.27148 2421 ft 136 kts 164°
2026-05-04 01:49 35.89988 140.27719 2423 ft 133 kts 165°
2026-05-04 01:49 35.89189 140.28302 2455 ft 133 kts 163°
2026-05-04 01:49 35.88391 140.28884 2432 ft 133 kts 164°
2026-05-04 01:49 35.87599 140.29454 2392 ft 134 kts 162°
2026-05-04 01:50 35.86792 140.30047 2265 ft 136 kts 163°
2026-05-04 01:50 35.85981 140.30633 2079 ft 133 kts 165°
2026-05-04 01:50 35.85156 140.31218 1885 ft 139 kts 161°
2026-05-04 01:50 35.84322 140.31846 1687 ft 142 kts 160°
2026-05-04 01:51 35.83492 140.32450 1502 ft 139 kts 161°
2026-05-04 01:51 35.82655 140.33022 1311 ft 137 kts 158°
2026-05-04 01:51 35.81826 140.33604 1094 ft 138 kts 154°
2026-05-04 01:51 35.80997 140.34250 953 ft 143 kts 154°
2026-05-04 01:52 35.80136 140.34879 751 ft 145 kts 155°
2026-05-04 01:52 35.79279 140.35511 568 ft 139 kts 155°
2026-05-04 01:52 35.78491 140.36078 405 ft 128 kts 155°
2026-05-04 01:52 35.77718 140.36631 253 ft 136 kts 154°
2026-05-04 01:53 35.76845 140.37251 150 ft 140 kts 137°
2026-05-04 01:53 35.76155 140.37763 144 ft 95 kts 151°
2026-05-04 01:53 35.75748 140.38056 147 ft 48 kts 149°
2026-05-04 01:53 35.75569 140.38214 147 ft 26 kts 129°
2026-05-04 01:54 35.75486 140.38371 148 ft 12 kts 119°
2026-05-04 01:54 35.75460 140.38470 150 ft 12 kts 84°
2026-05-04 01:54 35.75492 140.38561 151 ft 8 kts 41°
2026-05-04 01:54 35.75551 140.38572 151 ft 10 kts 337°
2026-05-04 01:55 35.75628 140.38522 151 ft 15 kts 331°
2026-05-04 01:55 35.75723 140.38472 151 ft 13 kts 14°
2026-05-04 01:55 35.75787 140.38502 151 ft 6 kts 344°
2026-05-04 01:55 35.75814 140.38497 151 ft 4 kts
2026-05-04 01:56 35.75836 140.38512 151 ft 4 kts 58°
2026-05-04 01:56 35.75860 140.38560 151 ft 9 kts 58°
2026-05-04 01:56 35.75877 140.38593 151 ft 2 kts 58°
2026-05-04 01:56 35.75877 140.38594 151 ft 0 kts 58°